When you browse on this site, cookies collect data to enhance your experience and personalize the content and advertising you see.
Visit our Privacy Policy to learn more. By continuing to use the site, you agree to this use of cookies and data.
  • En España
  • Lista de países
  • Para 7 días
  • Temperatura del agua
  • Mapa Satelital
  • El tiempo en el mapa
  • Informadores
  • user-avatar
    Iniciar sesión

    Tiempo cada hora Baksheevo

    Hoy, 17 Julio, Miércoles

    Tiempo Temperatura Precipitaciones Viento Presión Humedad
    00:00 +11°C° 0 mm 1 mps 740 mmHg 90%
    01:00 +11°C° 0 mm 1 mps 740 mmHg 91%
    02:00 +11°C° 0 mm 1 mps 740 mmHg 93%
    03:00 +12°C° 0 mm 1 mps 740 mmHg 92%
    04:00 +12°C° 0 mm 2 mps 740 mmHg 91%
    05:00 +12°C° 0 mm 2 mps 740 mmHg 89%
    06:00 +13°C° 0.1 mm 2 mps 739 mmHg 87%
    07:00 +14°C° 0.1 mm 1 mps 739 mmHg 86%
    08:00 +15°C° 0 mm 1 mps 739 mmHg 83%
    09:00 +16°C° 0.1 mm 1 mps 739 mmHg 81%
    10:00 +18°C° 0.1 mm 1 mps 739 mmHg 78%
    11:00 +19°C° 0.1 mm 1 mps 739 mmHg 76%
    12:00 +18°C° 0.1 mm 2 mps 739 mmHg 73%
    13:00 +19°C° 0.1 mm 2 mps 739 mmHg 69%
    14:00 +20°C° 0.1 mm 2 mps 738 mmHg 65%
    15:00 +19°C° 0.1 mm 2 mps 738 mmHg 68%
    16:00 +20°C° 0.1 mm 1 mps 738 mmHg 70%
    17:00 +20°C° 0.1 mm 1 mps 738 mmHg 72%
    18:00 +19°C° 0.2 mm 1 mps 738 mmHg 76%
    19:00 +18°C° 0.2 mm 1 mps 738 mmHg 80%
    20:00 +16°C° 0.2 mm 1 mps 738 mmHg 85%
    21:00 +15°C° 0.1 mm 1 mps 738 mmHg 85%
    22:00 +15°C° 0.1 mm 1 mps 738 mmHg 86%
    23:00 +15°C° 0.1 mm 1 mps 738 mmHg 87%

    Mañana, 18 Julio, Jueves

    Tiempo Temperatura Precipitaciones Viento Presión Humedad
    00:00 +15°C° 0.2 mm 1 mps 738 mmHg 89%
    01:00 +14°C° 0.2 mm 1 mps 738 mmHg 91%
    02:00 +14°C° 0.2 mm 1 mps 738 mmHg 93%
    03:00 +14°C° 0.4 mm 1 mps 737 mmHg 94%
    04:00 +14°C° 0.4 mm 2 mps 737 mmHg 96%
    05:00 +14°C° 0.4 mm 2 mps 737 mmHg 97%
    06:00 +14°C° 0.7 mm 2 mps 737 mmHg 97%
    07:00 +14°C° 0.7 mm 1 mps 737 mmHg 97%
    08:00 +14°C° 0.7 mm 1 mps 737 mmHg 97%
    09:00 +15°C° 0.5 mm 2 mps 737 mmHg 97%
    10:00 +15°C° 0.5 mm 2 mps 737 mmHg 97%
    11:00 +15°C° 0.5 mm 2 mps 737 mmHg 97%
    12:00 +15°C° 0.4 mm 2 mps 737 mmHg 96%
    13:00 +16°C° 0.4 mm 2 mps 737 mmHg 95%
    14:00 +16°C° 0.4 mm 2 mps 737 mmHg 94%
    15:00 +16°C° 0.3 mm 2 mps 737 mmHg 94%
    16:00 +16°C° 0.3 mm 2 mps 737 mmHg 94%
    17:00 +16°C° 0.3 mm 2 mps 738 mmHg 93%
    18:00 +16°C° 0.3 mm 2 mps 737 mmHg 95%
    19:00 +15°C° 0.3 mm 2 mps 737 mmHg 96%
    20:00 +14°C° 0.3 mm 2 mps 737 mmHg 98%
    21:00 +14°C° 0.6 mm 2 mps 738 mmHg 98%
    22:00 +13°C° 0.6 mm 3 mps 738 mmHg 98%
    23:00 +13°C° 0.6 mm 3 mps 738 mmHg 98%

    Pasado mañana, 19 Julio, Viernes

    Tiempo Temperatura Precipitaciones Viento Presión Humedad
    00:00 +13°C° 1.2 mm 3 mps 738 mmHg 98%
    01:00 +14°C° 1.2 mm 4 mps 738 mmHg 97%
    02:00 +14°C° 1.2 mm 4 mps 738 mmHg 97%
    03:00 +14°C° 0.4 mm 4 mps 738 mmHg 97%
    04:00 +14°C° 0.4 mm 5 mps 738 mmHg 97%
    05:00 +14°C° 0.4 mm 5 mps 738 mmHg 97%
    06:00 +14°C° 0.2 mm 5 mps 739 mmHg 97%
    07:00 +14°C° 0.2 mm 5 mps 739 mmHg 96%
    08:00 +14°C° 0.2 mm 5 mps 739 mmHg 96%
    09:00 +14°C° 0.3 mm 5 mps 740 mmHg 95%
    10:00 +14°C° 0.3 mm 5 mps 740 mmHg 95%
    11:00 +14°C° 0.3 mm 5 mps 740 mmHg 94%
    12:00 +15°C° 0.5 mm 5 mps 741 mmHg 93%
    13:00 +15°C° 0.5 mm 5 mps 741 mmHg 92%
    14:00 +15°C° 0.5 mm 6 mps 741 mmHg 91%
    15:00 +15°C° 0.1 mm 5 mps 741 mmHg 91%
    16:00 +15°C° 0.1 mm 5 mps 742 mmHg 92%
    17:00 +15°C° 0.1 mm 4 mps 742 mmHg 92%
    18:00 +15°C° 0 mm 4 mps 742 mmHg 92%
    19:00 +16°C° 0 mm 3 mps 742 mmHg 91%
    20:00 +14°C° 0 mm 3 mps 743 mmHg 91%
    21:00 +14°C° 0 mm 3 mps 743 mmHg 91%
    22:00 +14°C° 0 mm 3 mps 743 mmHg 92%
    23:00 +14°C° 0 mm 3 mps 744 mmHg 92%

    20 Julio, Sábado

    Tiempo Temperatura Precipitaciones Viento Presión Humedad
    00:00 +13°C° 0 mm 3 mps 744 mmHg 94%
    01:00 +13°C° 0 mm 3 mps 744 mmHg 95%
    02:00 +12°C° 0 mm 3 mps 744 mmHg 97%
    03:00 +12°C° 0 mm 3 mps 744 mmHg 96%
    04:00 +12°C° 0 mm 3 mps 744 mmHg 96%
    05:00 +12°C° 0 mm 3 mps 745 mmHg 96%
    06:00 +14°C° 0 mm 3 mps 745 mmHg 91%
    07:00 +15°C° 0 mm 4 mps 745 mmHg 86%
    08:00 +17°C° 0 mm 4 mps 745 mmHg 80%
    09:00 +18°C° 0.2 mm 4 mps 746 mmHg 79%
    10:00 +19°C° 0.2 mm 5 mps 746 mmHg 78%
    11:00 +20°C° 0.2 mm 5 mps 746 mmHg 76%
    12:00 +20°C° 0.6 mm 4 mps 747 mmHg 78%
    13:00 +20°C° 0.6 mm 4 mps 747 mmHg 80%
    14:00 +20°C° 0.6 mm 4 mps 747 mmHg 81%
    15:00 +20°C° 0.4 mm 4 mps 747 mmHg 81%
    16:00 +20°C° 0.4 mm 3 mps 747 mmHg 80%
    17:00 +20°C° 0.4 mm 3 mps 747 mmHg 79%
    18:00 +19°C° 0.1 mm 3 mps 747 mmHg 84%
    19:00 +18°C° 0.1 mm 2 mps 748 mmHg 88%
    20:00 +17°C° 0.1 mm 2 mps 748 mmHg 92%
    21:00 +16°C° 0 mm 2 mps 748 mmHg 93%
    22:00 +15°C° 0 mm 2 mps 748 mmHg 94%
    23:00 +14°C° 0 mm 2 mps 748 mmHg 95%

    21 Julio, Domingo

    Tiempo Temperatura Precipitaciones Viento Presión Humedad
    00:00 +14°C° 0 mm 2 mps 748 mmHg 96%
    01:00 +14°C° 0 mm 2 mps 748 mmHg 96%
    02:00 +13°C° 0 mm 2 mps 748 mmHg 97%
    03:00 +13°C° 0 mm 2 mps 749 mmHg 97%
    04:00 +13°C° 0 mm 2 mps 749 mmHg 97%
    05:00 +13°C° 0 mm 1 mps 749 mmHg 97%
    06:00 +15°C° 0 mm 2 mps 749 mmHg 92%
    07:00 +16°C° 0 mm 2 mps 749 mmHg 87%
    08:00 +18°C° 0 mm 2 mps 749 mmHg 83%
    09:00 +19°C° 0 mm 2 mps 749 mmHg 77%
    10:00 +20°C° 0 mm 2 mps 749 mmHg 71%
    11:00 +21°C° 0 mm 2 mps 749 mmHg 65%
    12:00 +23°C° 0.1 mm 2 mps 749 mmHg 66%
    13:00 +22°C° 0.1 mm 3 mps 749 mmHg 67%
    14:00 +22°C° 0.1 mm 3 mps 749 mmHg 68%
    15:00 +22°C° 0.1 mm 3 mps 749 mmHg 69%
    16:00 +22°C° 0.1 mm 3 mps 749 mmHg 69%
    17:00 +22°C° 0.1 mm 3 mps 749 mmHg 70%
    18:00 +20°C° 0 mm 2 mps 749 mmHg 76%
    19:00 +20°C° 0 mm 1 mps 749 mmHg 83%
    20:00 +18°C° 0 mm 1 mps 749 mmHg 89%
    21:00 +16°C° 0 mm 1 mps 749 mmHg 90%
    22:00 +15°C° 0 mm 1 mps 749 mmHg 91%
    23:00 +15°C° 0 mm 1 mps 749 mmHg 92%

    22 Julio, Lunes

    Tiempo Temperatura Precipitaciones Viento Presión Humedad
    00:00 +14°C° 0 mm 1 mps 749 mmHg 92%
    01:00 +14°C° 0 mm 1 mps 749 mmHg 93%
    02:00 +13°C° 0 mm 1 mps 749 mmHg 94%
    03:00 +13°C° 0 mm 1 mps 749 mmHg 94%
    04:00 +13°C° 0 mm 1 mps 749 mmHg 94%
    05:00 +13°C° 0 mm 1 mps 749 mmHg 95%
    06:00 +15°C° 0 mm 1 mps 749 mmHg 88%
    07:00 +18°C° 0 mm 1 mps 749 mmHg 81%
    08:00 +20°C° 0 mm 1 mps 749 mmHg 74%
    09:00 +22°C° 0 mm 1 mps 749 mmHg 66%
    10:00 +23°C° 0 mm 1 mps 749 mmHg 58%
    11:00 +24°C° 0 mm 1 mps 749 mmHg 50%
    12:00 +25°C° 0 mm 2 mps 749 mmHg 48%
    13:00 +25°C° 0 mm 2 mps 749 mmHg 46%
    14:00 +26°C° 0 mm 2 mps 749 mmHg 44%
    15:00 +25°C° 0 mm 2 mps 749 mmHg 48%
    16:00 +25°C° 0 mm 2 mps 748 mmHg 52%
    17:00 +25°C° 0 mm 2 mps 748 mmHg 56%
    18:00 +23°C° 0 mm 2 mps 748 mmHg 63%
    19:00 +20°C° 0 mm 2 mps 748 mmHg 69%
    20:00 +18°C° 0 mm 2 mps 748 mmHg 76%
    21:00 +17°C° 0 mm 2 mps 748 mmHg 78%
    22:00 +16°C° 0 mm 2 mps 749 mmHg 80%
    23:00 +15°C° 0 mm 2 mps 749 mmHg 82%
    Mostrar más